Regional Weather Roundup
Issued by NWS

Home | Current Version | Previous Version | Text Only | Print | Product List | Glossary On
Versions: 1 2 3 4 5 6 7 8 9 10 11 12 13 14 15 16 17 18 19 20 21 22 23 24 25 26 27 28 29 30 31 32 33 34 35 36 37 38 39 40 41 42 43 44 45 46 47 48 49 50
000
ASUS43 KDTX 300501
RWRMI
MICHIGAN HOURLY REGIONAL WEATHER ROUNDUP
NATIONAL WEATHER SERVICE DETROIT/PONTIAC MI
100 AM EDT SAT APR 30 2016

NOTE: "FAIR" INDICATES FEW OR NO CLOUDS BELOW 12,000 FEET WITH NO
SIGNIFICANT WEATHER AND/OR OBSTRUCTION TO VISIBILITY.

MIZ047>049-052>055-059>063-066>070-074>076-081>083-300600-
SOUTHEAST LOWER MICHIGAN

CITY           SKY/WX    TMP DP  RH WIND       PRES   REMARKS
ADRIAN         CLOUDY    47  39  74 E6        30.15F
ALMA           CLEAR     37  37  99 CALM      30.17R
ANN ARBOR      CLOUDY    47  38  71 SE5       30.16R
BAD AXE        CLEAR     32  29  88 CALM      30.17F
CARO           CLEAR     32  29  88 CALM      30.17S
DETROIT CITY   MOCLDY    44  31  60 SE3       30.18R
DETROIT        CLOUDY    47  35  63 NE6       30.17R
FLINT          CLEAR     42  36  79 CALM      30.17S
GROSSE ILE     CLOUDY    46  41  81 E3        30.16R
HILLSDALE      CLOUDY    46  39  75 E5        30.13F
HOWELL         PTCLDY    44  35  70 CALM      30.15S

CITY           SKY/WX    TMP DP  RH WIND       PRES   REMARKS
JACKSON        CLOUDY    48  38  68 SE5       30.15S
LAMBERTVILLE   CLOUDY    48  40  74 CALM      30.15F
LANSING        PTCLDY    42  37  82 NE6       30.16S
LAPEER         FAIR      37  35  91 CALM      30.17R
MASON          CLOUDY    45  38  77 CALM      30.15F
MONROE         CLOUDY    44  41  88 S5        30.15S
MT. CLEMENS    CLOUDY    43  33  67 CALM      30.16R
PONTIAC        CLOUDY    46  32  58 SE7       30.16R
PORT HOPE        N/A     35  31  85 CALM      30.17F
PORT HURON     CLOUDY    43  30  61 CALM      30.17S
TRI CITIES     CLEAR     42  36  79 CALM      30.18S
MIDLAND        FAIR      38  33  81 CALM      30.17S
TROY           CLOUDY    46  32  57 CALM      30.19R
SAGINAW HB     CLEAR     37  32  81 CALM      30.17S
$$
MIZ043>046-050>051-056>058-064>065-071>073-077>080-300600-
SOUTHWEST LOWER MICHIGAN

CITY           SKY/WX    TMP DP  RH WIND       PRES   REMARKS
BATTLE CREEK   CLOUDY    48  39  71 E7        30.14F
BENTON HARBOR  CLOUDY    48  42  80 E6        30.11F
BIG RAPIDS     CLEAR     38  33  81 CALM      30.15R
COLDWATER      CLOUDY    48  40  75 SE9       30.13F
FREMONT        FAIR      38  37  97 CALM      30.15S
HOLLAND        CLEAR     42  38  85 NE3       30.14F
GRAND RAPIDS   CLEAR     40  37  89 NE5       30.15S
IONIA          FAIR      39  36  89 NE6       30.15S WCI  35
KALAMAZOO      CLOUDY    49  40  71 E5        30.13F
LUDINGTON      CLEAR     34  34  99 CALM      30.15S
MARSHALL       CLOUDY    47  41  77 CALM      30.13F
MOUNT PLEASANT CLEAR     40  35  83 CALM      30.16S
MUSKEGON       CLEAR     40  33  76 E3        30.15F
$$
MIZ016>042-300600-
NORTHERN LOWER MICHIGAN

CITY           SKY/WX    TMP DP  RH WIND       PRES   REMARKS
ALPENA         CLEAR     32  28  85 CALM      30.19S
BEAVER ISLAND  CLEAR     41  32  69 E5        30.18F
BELLAIRE       CLEAR     39  33  80 CALM      30.16F
CADILLAC       CLEAR     38  32  77 E5        30.14F WCI  35
CHARLEVOIX     CLEAR     40  33  74 E3        30.19F
FRANKFORT      CLEAR     47  33  58 E8        30.14S
GAYLORD        CLEAR     42  28  57 CALM      30.16S
HARBOR SPRINGS CLEAR     39  30  71 NE5       30.17F
HOUGHTON LAKE  CLEAR     39  29  67 SE5       30.16F
MANISTEE       CLEAR     34  28  80 CALM      30.14F
OSCODA         CLEAR     32  26  77 CALM      30.18S
PELLSTON       CLEAR     34  29  82 CALM      30.19S
ROGERS CITY    CLEAR     30  28  90 CALM      30.20S
TRAVERSE CITY  CLEAR     39  33  79 CALM      30.14F
$$
MIZ007>008-015-300600-
EASTERN UPPER MICHIGAN

CITY           SKY/WX    TMP DP  RH WIND       PRES   REMARKS
KINROSS          N/A     36  30  80 SW3       30.19R
MACKINAC ISLAN CLEAR     39  28  66 NE6       30.19S WCI  35
NEWBERRY       CLEAR     40  30  68 NW3       30.18F
S. S. MARIE    CLEAR     38  31  76 CALM      30.18R
MUNISING         N/A     32  30  92 S5        30.21F WCI  27
$$
MIZ004>006-011>014-085-300600-
CENTRAL UPPER MICHIGAN

CITY           SKY/WX    TMP DP  RH WIND       PRES   REMARKS
MANISTIQUE     CLEAR     37  31  77 N7        30.18F WCI  32
ESCANABA       CLEAR     41  30  65 N7        30.18S
MENOMINEE      PTCLDY    43  30  61 NE3       30.16S
SAWYER-GWINN   CLEAR     32  28  86 N5        30.19R WCI  27
$$
MIZ001>003-009>011-084-300600-
WESTERN UPPER MICHIGAN

CITY           SKY/WX    TMP DP  RH WIND       PRES   REMARKS
IRON MOUNTAIN  CLEAR     41  28  60 N3        30.16S
HOUGHTON       MOCLDY    38  28  67 N7        30.22R WCI  33
COPPER HARBOR    N/A     40  32  73 N3        30.23S
IRONWOOD         N/A     34  32  93 CALM      30.17F
$$

ABBREVIATIONS USED IN REMARKS
   TC - TEMPERATURE IN CELSIUS
  WCI - WIND CHILL INDEX
   HX - HEAT INDEX
  VSB - VISIBILITY




USA.gov is the U.S. government's official web portal to all federal, state and local government web resources and services.